Weather in Margaret River

Australia     33°57′11″S   115°04′27″E
temp.,
°C
wind,
m/s
gust,
m/s
humid.,
%
clouds,
%
prec.,
mm/h
press.,
hPa
HPBL,
m
30 november, tue
tue3023:00+15s676297 0.0 10171242
02:00+15s676199 0.0 10161301
05:00+15s6762100 0.1 10171389
08:00+15s5662100 0.1 10181365
11:00+16ssw556172 0.1 10181188
14:00+16ssw77600 0.1 10171039
17:00+17ssw66592 0.0 10161196
20:00+15s566660 0.0 1017947
1 december, wed
wed123:00+15s45680 0.0 1017918
02:00+14s337331 0.0 1016772
05:00+15ssw457195 0.2 1017800
08:00+17sw556098 0.3 10181272
11:00+17sw65593 0.0 10171203
14:00+17sw676171 0.1 10161192
17:00+17ssw776063 0.0 10171393
20:00+16s786398 0.1 10181275
2 december, thu
thu223:00+15sse687370 0.0 1018913
02:00+15sse576794 0.1 10181099
05:00+15se5872100 0.2 1020879
08:00+16se566198 0.3 10221079
11:00+19s76520 0.0 10211169
14:00+18s99550 0.0 10201192
17:00+17sse910590 0.0 10211020
20:00+15sse912680 0.0 1022805
3 december, fri
fri323:00+15se812671 0.0 1023948
02:00+13ese712690 0.0 1023788
05:00+11ese612740 0.0 1024612
08:00+15ese79560 0.0 10251007
11:00+21sse67390 0.0 10231165
14:00+21sse99480 0.0 1021837
17:00+19sse912600 0.0 1021669
20:00+16se1016700 0.0 1023548
4 december, sat
sat423:00+15se815690 0.0 1024408
02:00+13se713730 0.0 1022296
05:00+12ese613770 0.0 1023315
08:00+18ese59480 0.0 1023501
11:00+24s34380 0.0 1020556
14:00+24s89555 0.0 10171018
17:00+22sse710600 0.0 1017440
20:00+19sse7137297 0.0 1017324